Current Version              Previous Version:    01  02  03  04  05  06  07  08  09  10  11  12  13  14  15  16  17  18  19  20  21  22  23  24  25  26  27  28  29  30  
   31  32  33  34  35  36  37  38  39  40  41  42  43  44  45  46  47  48  49  50  51  52  53  54  55  56  57  58  59  60  

[Printable]
114
ASUS44 KEWX 250410
RWRTX
SOUTH TEXAS REGIONAL WEATHER ROUNDUP
NATIONAL WEATHER SERVICE AUSTIN/SAN ANTONIO TX
1100 PM CDT FRI OCT 24 2014

NOTE: "FAIR" INDICATED FEW OR NO CLOUDS BELOW 12,000 FEET WITH NO
SIGNIFICANT WEATHER AND/OR OBSTRUCTIONS TO VISIBILITY.

* - THESE STATIONS ARE NOT NWS OR FAA STATIONS...AND ARE NOT SUBJECT
    TO NWS AND FAA QUALITY CONTROL.

TXZ171-172-183>190-250500-
TEXAS HILL COUNTRY AND EDWARDS PLATEAU

CITY           SKY/WX    TMP DP  RH WIND       PRES   REMARKS
JUNCTION       CLEAR     68  56  65 CALM      30.16R
*LLANO         NOT AVBL
BURNET         CLEAR     69  58  67 CALM      30.18R
*HORSESHOE BAY CLEAR     70  58  65 S7        30.15R
*KERRVILLE     CLEAR     61  57  86 CALM      30.18R
*FREDERICKSBRG CLEAR     61  57  86 CALM      30.18R
*ROCKSPRINGS   CLEAR     66  57  72 CALM      30.22R
*BOERNE STAGE  CLEAR     61  55  82 CALM      30.18R
*CASTROVILLE   CLEAR     71  55  57 CALM      30.16R
HONDO          CLEAR     63  54  72 CALM      30.16R
*UVALDE        CLEAR     72  61  67 CALM      30.15R
DEL RIO        CLEAR     72  63  73 SE5       30.12R
LAUGHLIN AFB   CLEAR     69  64  83 E6        30.13R
CARRIZO SPRGS  CLEAR     70  59  68 S5        30.12R
$$

TXZ173-191>194-202-209-217>225-228-250500-
CENTRAL AND SOUTH CENTRAL TEXAS

CITY           SKY/WX    TMP DP  RH WIND       PRES   REMARKS
GEORGETOWN     CLEAR     68  59  73 S3        30.15R
AUSTIN/BERGSTM CLEAR     63  58  83 CALM      30.14R
AUSTIN/MABRY   CLEAR     70  59  68 SE3       30.15R
*AUSTIN/EXEC   PTCLDY    68  59  73 CALM      30.15R
*LAGO VISTA    CLEAR     71  59  66 SE6       30.16S
SAN MARCOS     CLEAR     68  54  60 CALM      30.16R
NEW BRAUNFELS  CLEAR     67  57  70 CALM      30.13R
RANDOLPH AFB   CLEAR     70  57  64 E1        30.15R
PT SAN ANTONIO CLEAR     69  58  67 SE5       30.13R
SAN ANTONIO    CLEAR     72  58  61 CALM      30.15R
STINSON FIELD  CLEAR     71  58  63 SE5       30.13R
*PLEASANTON    CLEAR     72  57  58 SE3       30.14R
*LA GRANGE     CLEAR     70  61  71 CALM      30.13R
*GIDDINGS      CLEAR     64  57  78 CALM      30.18S
*GONZALES      CLEAR     70  59  68 SE6       30.13R
$$

TXZ163>164-176>182-195>201-210>213-226-227-235-250500-
SOUTHEAST TEXAS

CITY           SKY/WX    TMP DP  RH WIND       PRES   REMARKS
COLLEGE STN    CLEAR     68  57  68 SE5       30.14R
*BRYAN         CLEAR     64  58  81 SE7       30.16R
*CALDWELL      CLEAR     64  59  82 CALM      30.17S
*CROCKETT      CLEAR     63  61  94 SE3       30.17S
*BRENHAM       CLEAR     67  59  75 CALM      30.15S
HUNTSVILLE     CLEAR     63  57  81 CALM      30.14S
CONROE         CLEAR     57  55  93 CALM      30.15S
HOUSTON BUSH   CLEAR     61  58  90 CALM      30.15R
HOUSTON HOBBY  CLEAR     65  58  78 CALM      30.14R
*HOUSTON SW AP CLEAR     56  56  98 SW8       30.15S
PEARLAND       CLEAR     63  57  81 CALM      30.15S
HOUSTON HOOKS  CLEAR     61  58  90 CALM      30.15R
ELLINGTON FLD  CLEAR     70  57  64 CALM      30.16R
SUGAR LAND     CLEAR     61  59  93 CALM      30.14S
*HOUSTON EXEC  CLEAR     64 N/A N/A CALM      30.16S
*CLEVELAND MUN NOT AVBL
*WHARTON       CLEAR     61  55  82 CALM      30.16S
*COLUMBUS      FAIR      63  59  86 CALM      30.14S
$$

TXZ214>216-236>238-250500-
THE UPPER TEXAS COAST

CITY           SKY/WX    TMP DP  RH WIND       PRES   REMARKS
*ORANGE        CLEAR    N/A N/A N/A CALM      30.15S
PORT ARTHUR    CLEAR     56  54  93 NW3       30.13S
GALVESTON      CLEAR     70  59  68 CALM      30.15R
ANGLETON       CLEAR     57  57 100 CALM      30.14S
*BAY CITY        N/A     61  59  96 CALM      30.15R
PALACIOS       CLEAR     67  61  81 E3        30.14S
$$

TXZ229>234-239>247-250500-
TEXAS COASTAL BEND AND RIO GRANDE PLAINS

CITY           SKY/WX    TMP DP  RH WIND       PRES   REMARKS
VICTORIA       CLEAR     66  58  75 S5        30.14R
*BEEVILLE      CLEAR     67  61  81 S3        30.14R
ROCKPORT       CLEAR     74  62  66 SE8       30.13R
*PORT ARANSAS  CLEAR     75  61  61 E7        30.12S
*PORT LAVACA   CLEAR     67  61  80 SE6       30.14S
*INGLESIDE     CLEAR     72  62  70 E3        30.13R
CORPUS CHRISTI CLEAR     68  63  84 S5        30.13R
CORPUS NAS     CLEAR     71  63  75 SE9       30.12S
*ROBSTOWN      NOT AVBL
ALICE          CLEAR     66  60  81 S3        30.14R
KINGSVILLE NAS CLEAR     67  62  84 CALM      30.14R
COTULLA        CLEAR     76  58  53 SE9       30.13R
*FAITH RANCH   CLEAR     68  57  68 SE5       30.13R
LAREDO         CLEAR     75  60  59 SE9       30.16R
$$

TXZ248>255-250500-
DEEP SOUTH TEXAS

CITY           SKY/WX    TMP DP  RH WIND       PRES   REMARKS
BROWNSVILLE    CLEAR     69  66  90 CALM      30.14R
PORT ISABEL    CLEAR     71  63  75 NE5       30.13R
*SOUTH PADRE   CLEAR    N/A N/A N/A NE9       30.13R
HARLINGEN      CLEAR     67  64  90 CALM      30.13S
*HEBBRONVILLE  CLEAR     67  59  74 S3        30.16R
MCALLEN        CLEAR     69  64  84 E5        30.15R
*WESLACO       CLEAR     71  62  74 CALM      30.14S
FALFURRIAS     CLEAR     67  59  77 CALM      30.14R
EDINBURG       CLEAR     70  65  82 CALM      30.15R
*ZAPATA        CLEAR     73  59  61 SE5       30.14R
$$

TXZ213>215-236>238-242>244-246-247-251-254-255-250500-
CMAN STATIONS

STATION/POSITION TIME  TEMP    WIND        PRES    WAVE
                       AIR SEA DIR/SP/G            HT/PER
                 (UTC) (F)     (DEG/KT/KT) (MB)    (FT/S)
SABINE PASS      0400   67 73   20/  4/  5 1020.4
SEA RIM ST PARK  0400   66     340/  4/  4 1021.1
NORTH JETTY/GLS  0400   73 75   90/  6/  7   N/A
EAGLE POINT      0400   73 74   90/  5/  6 1020.6
MORGANS POINT    0400   71      60/  4/  5 1020.5
MISSION/ARANSAS  0300          120/  7     1021.0
PORT O`CONNOR    0400          100/  7/  8   N/A
PORT ARANSAS     0400   77 79   90/ 11/ 12 1021.0
MALAQUITE BEACH  0400   77 79  100/ 10/ 12 1019.6
BAFFIN BAY       0400   75 83  120/  6/  9 1020.3
PORT ISABEL      0400   76 78   40/  5/  7 1020.3
$$

GMZ080-GMZ150>470-250500-
OFFSHORE BUOY REPORTS

STATION/POSITION TIME  TEMP    WIND        PRES    WAVE
                       AIR SEA DIR/SP/G            HT/PER
                 (UTC) (F)     (DEG/KT/KT) (MB)    (FT/S)
20 E GALVESTON   0400   73 77  360/  4/  6 1020.3    1/ 7
90 E PT ARANSAS  0400   75 81   50/ 12/ 14 1020.6    3/ 7
35 NE PT MANSFLD 0400   76 80   50/  8/ 10 1019.9    3/ 8
200 E PT ISABEL  0400   76 81   30/ 12/ 16 1019.0    4/ 8
$$



435
ASUS44 KLUB 250410
RWRTX
WEST TEXAS WEATHER ROUNDUP
NATIONAL WEATHER SERVICE LUBBOCK TX
1100 PM CDT FRI OCT 24 2014

NOTE: "FAIR" INDICATES FEW OR NO CLOUDS BELOW 12,000 FEET WITH NO
SIGNIFICANT WEATHER AND/OR OBSTRUCTIONS TO VISIBILITY.

TXZ004-006>008-010-012-014-016-OKZ002-250500-
TEXAS PANHANDLE/OKLAHOMA PANHANDLE

CITY           SKY/WX    TMP DP  RH WIND       PRES   REMARKS
AMARILLO       CLEAR     63  46  54 S7        30.15R
BORGER         CLEAR     73  41  31 S8        30.11R
CANADIAN       CLEAR     61  55  79 CALM      30.09R
DALHART        CLEAR     56  40  55 S8        30.17R
DUMAS            N/A     56  41  57 S9        30.15R
GUYMON         CLEAR     57  41  55 SW7       30.10R
HEREFORD       CLEAR     56  47  74 SW5       30.17S
PAMPA          CLEAR     62  46  54 S12       30.14R
PERRYTON       CLEAR     57  47  67 S8        30.10S
$$

TXZ026-029-035-045-048-250500-
SOUTHERN PANHANDLE/SOUTH PLAINS/ROLLING PLAINS

CITY           SKY/WX    TMP DP  RH WIND       PRES   REMARKS
CHILDRESS      CLEAR     68  56  65 SW9       30.09R
SEMINOLE       CLEAR     64  52  66 SW6       30.18S
LUBBOCK        CLEAR     65  51  60 S6        30.16R
PLAINVIEW      CLEAR     60  53  78 S7        30.15S
SNYDER         CLEAR     70  55  58 SE13      30.15R
$$

TXZ052-054-060>062-072-078-127-140-154-169-250500-
PERMIAN BASIN/CONCHO VALLEY/BIG COUNTRY/EDWARDS PLATEAU

CITY           SKY/WX    TMP DP  RH WIND       PRES   REMARKS
ABILENE        CLEAR     70  54  56 SE9       30.13R
BIG SPRING     CLEAR     67  52  58 S8        30.18R
BRADY          CLEAR     70  55  60 SE5       30.15S
BROWNWOOD      PTCLDY    66  57  72 CALM      30.14R
JUNCTION       CLEAR     68  56  65 CALM      30.16R
MIDLAND        CLEAR     72  50  45 S7        30.17R
ODESSA         CLEAR     69  48  47 S7        30.18R
SAN ANGELO     CLEAR     70  55  59 S9        30.14R
SONORA         CLEAR     63  57  82 CALM      30.22S
SWEETWATER     CLEAR     68  54  60 S8        30.18R
WINK           CLEAR     71  50  47 SE12      30.14R
$$

TXZ055-058-074-075-080-082-250500-
FAR WEST/SOUTHWEST MOUNTAINS/TRANS PECOS

CITY           SKY/WX    TMP DP  RH WIND       PRES   REMARKS
ALPINE         CLEAR     62  50  65 SW7       30.32R
DRYDEN           N/A     67  62  84 NE8       30.16R
EL PASO        CLEAR     71  47  42 CALM      30.20R
FORT STOCKTON  CLEAR     69  57  65 S13       30.18R
GUADALUPE PASS CLEAR     66  44  45 SW8       30.32R
MARFA          CLEAR     55  52  88 CALM      30.31R
PECOS          CLEAR     64  53  67 SW3       30.14R
PRESIDIO       FAIR      73  51  47 N6        30.16R
$$

TXZ014-016-019-021>030-083-250500
TEXAS TECH WEST TEXAS MESONET/TEXAS PANHANDLE/NORTHERN SOUTH PLAINS

CITY           SKY/WX    TMP DP  RH WIND       PRES   REMARKS
AMARILLO 9NNE    N/A     56  46  70 S6        30.14R
AMARILLO 7SSE    N/A     58  47  67 SW5       30.16S
AMHERST 1NE      N/A     64  46  52 SW8       30.18R
BOOTLEG 11WNW    N/A     58  42  55 SW10      30.22R
CANADIAN 6E      N/A     62  55  77 E6        30.08R
CAPROCK CYN SP   N/A     70  55  57 SW12      30.12S
CHILDRESS 2NNE   N/A     73  56  55 S13       30.08R
CLARENDON 2WSW   N/A     62  52  70 S7        30.12R
CLAUDE 12SW      N/A     69  45  42 S6        30.15R
DIMMITT 2NE      N/A     64  44  48 S9        30.18R
FLOYDADA 2NNE    N/A     63  53  70 S8        30.15S
FRIONA 2NE       N/A     61  41  48 SW5       30.20R
GOODLETT 3W      N/A     66  55  68 SW6       30.07R
HART 3N          N/A     57  48  72 SW5       30.17S
HEREFORD 2NW     N/A     56  41  57 SW6       30.18R
MCLEAN 1E        N/A     67  51  56 SW7       30.11R
MEMPHIS 1NE      N/A     63  56  79 NW2       30.09R
MULESHOE 2SSW    N/A     57  45  64 S8        30.18R
OLTON 6S         N/A     56  49  76 S9        30.17S
PALO DURO SP     N/A     66  46  46 S3        30.16S
PAMPA 2E         N/A     63  46  54 S8        30.13S
PLAINVIEW 1S     N/A     61  53  74 S3        30.15S
SILVERTON 7ESE   N/A     62  54  75 S9        30.15R
TULIA 2ENE       N/A     63  50  63 SW10      30.15F
TURKEY 2WSW      N/A     65  57  74 SW9       30.10S
UMBARGER 3NNE    N/A     59  45  59 SW7       30.17S
$$

TXZ033>036-039>041-045>048-250500
TEXAS TECH WEST TEXAS MESONET/SOUTH PLAINS

CITY           SKY/WX    TMP DP  RH WIND       PRES   REMARKS
AIKEN 3WSW       N/A     57  53  88 S7        30.17S
ANTON 6SSW       N/A     60  51  73 S8        30.17R
BROWNFIELD 2S    N/A     61  49  64 SW8       30.17R
DENVR CTY 7WNW   N/A     60  49  65 SW8       30.19R
GAIL 2ESE        N/A     65  54  67 SW7       30.14R
LAMESA 2SE       N/A     59  52  77 S8        30.16S
LEVELLAND 4S     N/A     59  47  63 SW9       30.17S
LUBBOCK 3WNW     N/A     67  49  51 S7        30.16S
MORTON 1ENE      N/A     63  47  57 S8        30.18S
ODONNELL 1N      N/A     67  48  49 S7        30.16S
PLAINS 3N        N/A     60  46  59 SW7       30.20R
RALLS 1SE        N/A     61  53  73 SW3       30.16S
REESE CENTER     N/A     59  51  72 SW9       30.16S
SEMINOLE 2NNE    N/A     67  51  56 S8        30.17S
SLATON 2NE       N/A     63  51  66 S12       30.16R
SNYDER 3E        N/A     68  55  62 SE12      30.13S
SUNDOWN 8SW      N/A     59  46  61 SW9       30.18S
TAHOKA 3NNE      N/A     62  50  65 S7        30.16R
WOLFFORTH 6SSW   N/A     59  53  81 SW5       30.17R
$$

TXZ031-032-036>038-042>044-250500-
TEXAS TECH WEST TEXAS MESONET/ROLLING PLAINS

CITY           SKY/WX    TMP DP  RH WIND       PRES   REMARKS
ASPERMONT 3NE    N/A     67  55  65 S7        30.10R
FLUVANNA 3WNW    N/A     65  54  67 SE8       30.14S
GUTHRIE 10WSW    N/A     67  56  67 S3        30.10R
HASKELL 1NW      N/A     70  52  52 S6        30.09S
JAYTON 1SSE      N/A     68  55  64 SE6       30.11R
KNOX CITY 3NW    N/A     67  54  62 S8        30.08S
LK A HENRY 1NW   N/A     67  54  62 S6        30.12R
NORTHFIELD 1S    N/A     69  58  68 S8        30.09S
ODELL 4ENE       N/A     71  58  62 S9        30.06S
PADUCAH 10SW     N/A     67  57  69 SW10      30.09S
POST 1NE         N/A     71  51  48 S7        30.13R
RRING SPRGS 3N   N/A     64  56  75 S6        30.13R
SEYMOUR 3NW      N/A     69  55  62 S6        30.07S
SPUR 1W          N/A     60  56  87 NW2       30.11R
WEINERT 2NNE     N/A     69  54  59 S7        30.09S
WHITE RVR 6NE    N/A     69  53  56 S3        30.13S
$$

TXZ052-054-060>062-072-078-127-140-154-169-250500-
TEXAS TECH WEST TEXAS MESONET/PERMIAN BASIN/
CONCHO VALLEY/BIG COUNTRY/EDWARDS PLATEAU

CITY           SKY/WX    TMP DP  RH WIND       PRES   REMARKS
COYANOSA 2N      N/A     70  58  66 SE9       30.15S
JUNCTION 1SSW    N/A     65  56  72 S3        30.17S
MERTZON 3NNE     N/A     67  56  68 S7        30.17R
SAN ANGELO 7NW   N/A     70  53  55 S5        30.14S
STRLNG CT 4WSW   N/A     71  56  58 S12       30.16R
ST LAWRNCE 5SW   N/A     67  53  59 S8        30.17S
SWEETWATR 11SW   N/A     66  53  64 SE8       30.17R
WALL 1E          N/A     71  54  55 S9        30.15R
$$

TXZ055-058-074-075-080-082-250500-
TEXAS TECH WEST TEXAS MESONET/FAR WEST/SOUTHWEST MOUNTAINS/TRANS PECOS

CITY           SKY/WX    TMP DP  RH WIND       PRES   REMARKS
PRSMN GAP BBNP   N/A     72  58  60 N15       30.18R
GUADLPE MTN NP   N/A     65  42  42 W7        30.32S
$$